BEIJING 1

Last updated on Mon Jun 22 2026 00:02:57 GMT+0000 (Coordinated Universal Time)

1 28890U 05043A 26172.52621076 .00000076 00000+0 24134-4 0 9996 2 28890 98.2923 305.7633 0013266 268.5773 91.3909 14.63533652101286
UTC large
Height (km)
Speed (km/s)
/
Latitude / Longitude
Inclination (degrees)
Orbital Period (minutes)
Azimuth
Elevation
Range (km)
Doppler Factor

Next 0 passes for location: London (51.5072 / 0.1276)

No passes found over London.
BEIJING 1